User: anonymous   Login
Location: Unspecified
(0.0000°N, 0.0000°E)
Time: 20:09:51
(UTC+02:00)
Language:

Cosmos 1933 - Orbit

View from above orbital plane
View from above orbital plane
View from above satellite
View from above satellite

Ground track
Ground track

The orbit data is extracted from the following two-line orbital elements,

1 18958U 88020A   16148.08955014  .00000157  00000-0  95531-5 0  9992
2 18958  82.5286 116.3096 0012580 148.4741 211.7241 15.02906307533535
Epoch (UTC): 27 May 2016 02:08:57
Eccentricity: 0.0012580
inclination: 82.5286°
perigee height: 549 km
apogee height: 566 km
right ascension of ascending node: 116.3096°
argument of perigee: 148.4741°
revolutions per day: 15.02906307
mean anomaly at epoch: 211.7241°
orbit number at epoch: 53353

The dashed part of the orbit path shows where the satellite is in the earth's shadow,  

DLR